AQI (46)

Current Conditions for Foresthill, CA. Sunny, Dry   
Visibility: 10 miles
Foresthill Advisory text:

  Summary / Temperature 

Current Temperature
58.2°F
14.6°C
(24/hr Ago)
57.3°F
(Apparent temp)
56.8°F
Cool
Wind Chill Graphs
58.1°F 

58.9°F/ 14.9°C
 --- Virtual Temp: 60.4°F ---

 Temp Rate:

 24/hr Difference:

 Avg Running Temp:

 Todays High:

 Todays Low:

 Y-days High:

 Y-days Low:

 Todays WChill:

 Y-days WChill:

 Evapotranspiration:

+0.6°F/hr 

+0.9°F

57.2°F

58.4°F 12:06am

56.3°F 6:17am

75.2°F 2:38pm

53.7°F 7:00am

52.8°F 7:22am

51.8°F 7:32am

0.019 in

115' Above Ground

 Temperature:

 6'AGL VRS 115'AGL:

 Avg Running Temp:

 Humidity:

 Todays High:

 Todays Low:

 Y-days High:

 Y-days Low:

66.0°F 

+7.8°F

62.6°F

44% 

66.0°F 9:09am

59.0°F 3:05am

75.0°F 3:39pm

59.0°F 7:07am

Temp & Humidity Graphs

  Wind 

Wind Speed

 Calm

Gusting to

 6.0 mph

Wind from ESE

115°  ESE

Calm

 Avg speed:

 Wind Run:

 Peak Gust:

  1.0 mph 

40.0 miles

  16.0 mph 7:20am

  Almanac  

Moon age: 10 days,2 hours,48 minutes,77%

Waxing Gibbous
80%
Illuminated
10 days in cycle

 Moonrise:

 Moonset:

 Sunrise:

 Sunset:

 Solar Noon:

3:21pm

4:16am

6:48am

7:22pm

1:07pm

2min 33s more daylight tomorrow 

  Solar Radiation 

(Current Solar)
  469 W/m2 (104%)
(Todays High)
 475 W/m2@9:09am
Feels like: 66.6°F in the sun

Rain

 Rain Today:

 Rain Rate (/hr):

 Rain last hour:

 Rain Yesterday:

 This Month:

 Season Total:

6 Days Since Last Rain Day

0.00 in

0.000 in

0.00 in

0.00 in

0.72 in

30.56 in

Updated Time

Updated: 3/30/15  9:10am

(Updated  sec ago)

Humidity & Barometer

 Humidity:

 Wetbulb:

 Dew Point:

 Barometer:

65% 

52.1°F 

46.5°F 

30.047 inHg 

 Baro Trend:  Steady 
Northern Calif
Preparedness
Fire 
Level 

    UV Index  

(Current UV)
1.7  Low
(Todays High) @ 9:07am
1.6   Low

Weather Underground 5 day Forecast

Mon Tue Wed Thu Fri
Mostly Cloudy Mostly Cloudy Mostly Cloudy Mostly Cloudy Partly Cloudy
Mostly Cloudy Mostly Cloudy Mostly Cloudy Mostly Cloudy Partly Cloudy
67 54 48 49 55
43 35 34 38 41

Foresthill Probe 2 Stats  
Foresthill Probe 2: is located on Thomas Street
at 3000 feet. The main Foresthill Weather site
is located on Melody ln at the 2860 foot elevation

Calm
60.7°F
15.9°C
Temp Rate:
+2.3°F
Calm
Gusting to
2.0 mph
(Humidity)
59%
Wind from ESE
123°  ESE
Updated: 30/03/15 - 09:10:20
 Todays High: 60.7°F 09:10
 Todays Low: 52.7°F 06:26
 Rain Today: 0.00 in
 Season Total: 28.32 in

Foresthill Wx: Monthly,Yearly, Highs and Lows 

Foresthill  
This Weather Data is coming from the main Foresthill
Weather site located on Melody ln at the 2860 foot
elevation
Not Foresthill Probe 2
Weather Data
Month
  High
Month
  Low
Year
High
Year
Low
Temp 77.2F
3/27/15
34.6F
3/3/15
77.2F
3/27/15
29.7F
1/1/15
Humidity 96%
3/11/15
27%
3/9/15
96%
3/11/15
21%
2/24/15
Heat Index 76.9F
3/27/15
39.5F
3/4/15
76.9F
3/27/15
32.1F
1/1/15
Wind Chill 77.2F
3/27/15
28.0F
3/1/15
77.2F
3/27/15
23.5F
1/2/15
Wind Gust 29 mph
3/4/15
0 mph
3/1/15
52 mph
2/6/15
0 mph
1/1/15
Barometer 30.42 in
3/5/15
29.85 in
3/2/15
30.51 in
1/4/15
29.70 in
2/27/15
ET 0.17 in
3/29/15
0.00 in
3/1/15
0.17 in
3/29/15
0.00 in
1/1/15
Dew Point 53.5F
3/12/15
24.1F
3/4/15
53.5F
3/12/15
10.0F
1/1/15
Infrared Satellite Regional Radar Satellite Imagery Sacramento,CA.  (click to enlarge)
NWS Weather Forecast - Outlook: Today and Tonight
Today

Mostly Sunny
Mostly
Sunny
Hi 76 °F
NWS forecast: Mostly sunny, with a high near 76. East northeast wind 5 to 9 mph becoming southwest in the afternoon.
Tonight

Partly Cloudy
Partly
Cloudy
Lo 47 °F
NWS forecast: Partly cloudy, with a low around 47. Southwest wind 5 to 7 mph becoming light and variable in the evening.
NWS Weather Forecast - Summary
Updated: Monday, March 30, 2015 - 4:05am (PDT)
YR.NO 10 Day Weather forecast
Last update: 03/30/2015 @ 00:04
Next update: 03/30/2015 @ 13:00
Provided by: 22
      Temperature Precipitation Pressure Wind  
Today
03/30/2015
08:00 11:00 46°F   30.02 inHg Light breeze from east-northeast 4 mph
  11:00 17:00 70°F   30.02 inHg Light air from southwest 3 mph
  17:00 23:00 70°F   29.98 inHg Light breeze from west-southwest 6 mph
  23:00 05:00 52°F   30.01 inHg Light breeze from east-southeast 4 mph
    (Click to enlarge)
meteogram

    Forecast for next 9 days

      Temperature Precip Pressure Wind  
Tuesday
03/31/2015
05:00 11:00 43°F   30.00 inHg Light breeze from east-southeast 6 mph
  11:00 17:00 55°F   30.09 inHg Light breeze from southwest 6 mph
  17:00 23:00 57°F   30.09 inHg Gentle breeze from west-northwest 8 mph
  23:00 05:00 45°F   30.16 inHg Light breeze from northeast 4 mph
      Temperature Precip Pressure Wind  
Wednesday
04/01/2015
05:00 11:00 34°F   30.10 inHg Light breeze from east-northeast 6 mph
  11:00 17:00 54°F   30.09 inHg Light breeze from west 5 mph
  17:00 23:00 55°F   30.02 inHg Light breeze from west 7 mph
  23:00 05:00 46°F   30.07 inHg Calm from east-northeast 0 mph
      Temperature Precip Pressure Wind  
Thursday
04/02/2015
05:00 11:00 34°F   30.11 inHg Light breeze from east-northeast 7 mph
  11:00 17:00 55°F   30.12 inHg Light air from north 3 mph
  17:00 23:00 57°F   30.11 inHg Gentle breeze from west-northwest 11 mph
  23:00 05:00 37°F   30.16 inHg Light breeze from east-northeast 5 mph
      Temperature Precip Pressure Wind  
Friday
04/03/2015
05:00 11:00 37°F   30.13 inHg Light breeze from east-northeast 7 mph
  11:00 17:00 59°F   30.15 inHg Light air from west 3 mph
  17:00 23:00 61°F   30.07 inHg Light breeze from west 6 mph
  23:00 05:00 39°F   30.07 inHg Light air from east-northeast 3 mph
      Temperature Precip Pressure Wind  
Saturday
04/04/2015
05:00 11:00 34°F   29.99 inHg Light breeze from east-northeast 5 mph
  11:00 17:00 57°F   29.97 inHg Gentle breeze from south-southwest 8 mph
  17:00 23:00 57°F   29.91 inHg Light breeze from southwest 7 mph
  23:00 05:00 41°F   29.94 inHg Light breeze from southeast 6 mph
      Temperature Precip Pressure Wind  
Sunday
04/05/2015
05:00 11:00 37°F   29.94 inHg Light breeze from east-southeast 5 mph
  11:00 17:00 50°F   29.96 inHg Light breeze from southwest 7 mph
  17:00 23:00 52°F 0.02 in 29.89 inHg Gentle breeze from southwest 9 mph
  23:00 05:00 41°F   29.94 inHg Light breeze from south-southeast 4 mph
      Temperature Precip Pressure Wind  
Monday
04/06/2015
05:00 11:00 34°F   29.93 inHg Light breeze from east 4 mph
  11:00 17:00 48°F < 0.01 in 29.93 inHg Light breeze from south-southwest 7 mph
  17:00 23:00 52°F 0.21 in 29.84 inHg Gentle breeze from south-southwest 10 mph
  23:00 05:00 41°F 0.53 in 29.92 inHg Light breeze from southeast 4 mph
      Temperature Precip Pressure Wind  
Tuesday
04/07/2015
05:00 11:00 41°F 1.14 in 29.83 inHg Light breeze from south-southwest 6 mph
  11:00 17:00 36°F 0.43 in 29.90 inHg Gentle breeze from east-southeast 8 mph
  17:00 23:00 41°F 0.32 in 29.83 inHg Gentle breeze from south-southeast 11 mph
  23:00 05:00 36°F 0.15 in 29.94 inHg Light breeze from south 7 mph
      Temperature Precip Pressure Wind  
Wednesday
04/08/2015
05:00 11:00 34°F 0.23 in 29.95 inHg Gentle breeze from south-southeast 9 mph
  11:00 17:00 37°F 0.14 in 30.06 inHg Light breeze from south 6 mph

Weather History For Monday, March 30, 2015


On this Day - In Weather History ...
Data courtesy of weatherforyou.com
powered by Cumulus v1.9.3 (1059)
Ambient Weather VWS v14.00
Top Contact Website Map Copyright © 2007 - 2015 Foresthillweather.com Never base important decisions on this or any weather information obtained from the Internet